QPF
0.00 0.00 0.00 0.00 0.00 0.00 0.00 0.00 0.00 0.00 0.00 0.00 0.00 0.00 0.00 0.00 0.00 0.00 0.00 0.00 0.00 0.00 0.00 0.00 0.00 0.00 0.00 0.00 0.00 0.00 0.00 0.00 0.00 0.00 0.00 0.01 0.01 0.01 0.01 0.00 0.00 0.00 0.00 0.00 0.00 0.00 0.00 0.00 0.00
0.00 0.00 0.00 0.00 0.00 0.00 0.00 0.00 0.00 0.00 0.00 0.00 0.00 0.00 0.00 0.00 0.00 0.00 0.00 0.00 0.00 0.00 0.00 0.00 0.00 0.00 0.00 0.00 0.00 0.00 0.00 0.00 0.01 0.00 0.00 0.00 0.00 0.00 0.00 0.00 0.00 0.00 0.00 0.00 0.00 0.00 0.00 0.00 0.00
0.00 0.00 0.00 0.00 0.00 0.00 0.00 0.00 0.00 0.00 0.00 0.00 0.00 0.00 0.00 0.00 0.00 0.00 0.00 0.00 0.00 0.00 0.00 0.00 0.00 0.00 0.00 0.00 0.00 0.00 0.00 0.00 0.01 0.00 0.00 0.00 0.00 0.00 0.00 0.00 0.00 0.00 0.00 0.00 0.00 0.00 0.00 0.00 0.00
0.00 0.00 0.00 0.00 0.00 0.00 0.00 0.00 0.00 0.00 0.00 0.00 0.00 0.00 0.00 0.00 0.00 0.00 0.00 0.00 0.00 0.00 0.00 0.00 0.00 0.00 0.00 0.00 0.00 0.00 0.00 0.01 0.01 0.01 0.01 0.00 0.00 0.00 0.00 0.00 0.00 0.00 0.00 0.00 0.00 0.00 0.00 0.00 0.00
0.00 0.00 0.00 0.00 0.00 0.00 0.00 0.00 0.00 0.00 0.00 0.00 0.00 0.00 0.00 0.00 0.00 0.00 0.00 0.00 0.00 0.00 0.00 0.00 0.00 0.00 0.00 0.00 0.00 0.00 0.01 0.01 0.01 0.01 0.01 0.01 0.00 0.00 0.00 0.00 0.00 0.00 0.00 0.00 0.00 0.00 0.00 0.00 0.00
0.00 0.00 0.00 0.00 0.00 0.00 0.00 0.00 0.00 0.00 0.00 0.00 0.00 0.00 0.00 0.00 0.00 0.00 0.00 0.00 0.00 0.00 0.00 0.00 0.00 0.00 0.00 0.00 0.00 0.00 0.00 0.01 0.01 0.00 0.01 0.01 0.00 0.00 0.00 0.00 0.00 0.00 0.00 0.00 0.00 0.00 0.00 0.00 0.00
0.00 0.00 0.00 0.00 0.00 0.00 0.00 0.00 0.00 0.00 0.00 0.00 0.00 0.00 0.00 0.00 0.00 0.00 0.00 0.00 0.00 0.00 0.00 0.00 0.00 0.00 0.00 0.01 0.00 0.00 0.00 0.01 0.01 0.01 0.01 0.01 0.00 0.00 0.00 0.00 0.00 0.00 0.00 0.00 0.00 0.00 0.00 0.00 0.00
0.00 0.00 0.00 0.00 0.00 0.00 0.00 0.00 0.00 0.00 0.00 0.00 0.00 0.00 0.00 0.00 0.00 0.00 0.00 0.00 0.00 0.00 0.00 0.00 0.00 0.00 0.00 0.00 0.01 0.01 0.01 0.01 0.01 0.01 0.00 0.00 0.00 0.00 0.00 0.00 0.00 0.00 0.00 0.00 0.00 0.00 0.00 0.00 0.00
0.00 0.00 0.00 0.00 0.00 0.00 0.00 0.00 0.00 0.00 0.00 0.00 0.00 0.00 0.00 0.00 0.00 0.00 0.00 0.00 0.00 0.00 0.00 0.00 0.00 0.00 0.00 0.00 0.01 0.01 0.01 0.01 0.01 0.01 0.00 0.00 0.00 0.00 0.00 0.00 0.00 0.00 0.00 0.00 0.00 0.00 0.00 0.00 0.00
0.00 0.00 0.00 0.00 0.00 0.00 0.00 0.00 0.00 0.00 0.00 0.00 0.00 0.00 0.00 0.00 0.00 0.00 0.00 0.00 0.00 0.00 0.00 0.00 0.00 0.00 0.00 0.00 0.00 0.00 0.00 0.00 0.00 0.00 0.00 0.00 0.00 0.00 0.00 0.00 0.00 0.00 0.00 0.00 0.00 0.00 0.00 0.00 0.00
0.00 0.00 0.00 0.00 0.00 0.00 0.00 0.00 0.00 0.00 0.00 0.00 0.00 0.00 0.00 0.00 0.00 0.00 0.00 0.00 0.00 0.00 0.00 0.00 0.00 0.00 0.00 0.00 0.00 0.00 0.00 0.00 0.00 0.00 0.00 0.00 0.00 0.00 0.00 0.00 0.00 0.00 0.00 0.00 0.00 0.00 0.00 0.00 0.00
0.00 0.00 0.00 0.00 0.00 0.00 0.00 0.00 0.00 0.00 0.00 0.00 0.00 0.00 0.00 0.00 0.00 0.00 0.00 0.00 0.00 0.00 0.00 0.00 0.00 0.00 0.00 0.00 0.00 0.00 0.00 0.00 0.00 0.00 0.00 0.00 0.00 0.00 0.00 0.00 0.00 0.00 0.00 0.00 0.00 0.00 0.00 0.00 0.00
0.00 0.00 0.00 0.00 0.00 0.00 0.00 0.00 0.00 0.00 0.00 0.00 0.00 0.00 0.00 0.00 0.00 0.00 0.00 0.00 0.00 0.00 0.00 0.00 0.00 0.00 0.00 0.00 0.00 0.00 0.00 0.00 0.00 0.00 0.00 0.00 0.00 0.00 0.00 0.00 0.00 0.00 0.00 0.00 0.00 0.00 0.00 0.00 0.00
0.00 0.00 0.00 0.00 0.00 0.00 0.00 0.00 0.00 0.00 0.00 0.00 0.00 0.00 0.00 0.00 0.00 0.00 0.00 0.00 0.00 0.00 0.00 0.00 0.00 0.00 0.00 0.00 0.00 0.00 0.00 0.00 0.00 0.00 0.00 0.00 0.00 0.00 0.00 0.00 0.00 0.00 0.00 0.00 0.00 0.00 0.00 0.00 0.00
0.00 0.00 0.00 0.00 0.00 0.00 0.00 0.00 0.00 0.00 0.00 0.00 0.00 0.00 0.00 0.00 0.00 0.00 0.00 0.00 0.00 0.00 0.00 0.00 0.00 0.00 0.00 0.00 0.00 0.00 0.01 0.01 0.01 0.00 0.00 0.00 0.00 0.00 0.00 0.00 0.00 0.00 0.00 0.00 0.00 0.00 0.00 0.00 0.00
0.00 0.00 0.00 0.00 0.00 0.00 0.00 0.00 0.00 0.00 0.00 0.00 0.00 0.00 0.00 0.00 0.00 0.00 0.00 0.00 0.00 0.00 0.00 0.00 0.00 0.00 0.00 0.00 0.00 0.01 0.01 0.01 0.01 0.00 0.00 0.00 0.00 0.00 0.00 0.00 0.00 0.00 0.00 0.00 0.00 0.00 0.00 0.00 0.00
0.00 0.00 0.00 0.00 0.00 0.00 0.00 0.00 0.00 0.00 0.00 0.00 0.00 0.00 0.00 0.00 0.00 0.00 0.00 0.00 0.00 0.00 0.00 0.00 0.00 0.00 0.00 0.00 0.00 0.00 0.01 0.01 0.01 0.00 0.00 0.00 0.00 0.00 0.00 0.00 0.00 0.00 0.00 0.00 0.00 0.00 0.00 0.00 0.00
0.00 0.00 0.00 0.00 0.00 0.00 0.00 0.00 0.00 0.00 0.00 0.00 0.00 0.00 0.00 0.00 0.00 0.00 0.00 0.00 0.00 0.00 0.00 0.00 0.00 0.00 0.00 0.00 0.00 0.00 0.00 0.00 0.00 0.00 0.00 0.00 0.00 0.00 0.01 0.00 0.00 0.00 0.00 0.00 0.00 0.00 0.00 0.00 0.00
0.00 0.00 0.00 0.00 0.00 0.00 0.00 0.00 0.00 0.00 0.00 0.00 0.00 0.00 0.00 0.00 0.00 0.00 0.00 0.00 0.00 0.00 0.00 0.00 0.00 0.00 0.00 0.00 0.00 0.00 0.00 0.00 0.00 0.00 0.00 0.00 0.00 0.00 0.01 0.01 0.01 0.01 0.01 0.01 0.01 0.01 0.01 0.00 0.00
0.00 0.00 0.00 0.00 0.00 0.00 0.00 0.00 0.00 0.00 0.00 0.00 0.00 0.00 0.00 0.00 0.00 0.00 0.00 0.00 0.00 0.00 0.00 0.00 0.00 0.00 0.00 0.00 0.00 0.00 0.00 0.00 0.00 0.00 0.00 0.00 0.00 0.00 0.00 0.00 0.00 0.00 0.00 0.00 0.00 0.00 0.00 0.00 0.00
0.00 0.00 0.00 0.00 0.00 0.00 0.00 0.00 0.00 0.00 0.00 0.00 0.00 0.00 0.00 0.00 0.00 0.00 0.00 0.00 0.00 0.00 0.00 0.00 0.00 0.00 0.00 0.00 0.00 0.00 0.00 0.00 0.00 0.00 0.00 0.00 0.00 0.00 0.00 0.00 0.00 0.00 0.00 0.00 0.00 0.00 0.00 0.00 0.00
0.00 0.00 0.00 0.00 0.00 0.00 0.00 0.00 0.00 0.00 0.00 0.00 0.00 0.00 0.00 0.00 0.00 0.00 0.00 0.00 0.00 0.00 0.00 0.00 0.00 0.00 0.00 0.00 0.00 0.00 0.00 0.00 0.00 0.00 0.00 0.00 0.00 0.00 0.00 0.00 0.00 0.00 0.00 0.00 0.00 0.00 0.00 0.00 0.00
0.00 0.00 0.00 0.00 0.00 0.00 0.00 0.00 0.00 0.00 0.00 0.00 0.00 0.00 0.00 0.00 0.00 0.00 0.00 0.00 0.00 0.00 0.00 0.00 0.00 0.00 0.00 0.00 0.00 0.00 0.00 0.00 0.00 0.00 0.00 0.00 0.00 0.00 0.00 0.00 0.00 0.00 0.00 0.00 0.00 0.00 0.00 0.00 0.00
0.00 0.00 0.00 0.00 0.00 0.00 0.00 0.00 0.00 0.00 0.00 0.00 0.00 0.00 0.00 0.00 0.00 0.00 0.00 0.00 0.00 0.00 0.00 0.00 0.00 0.00 0.00 0.00 0.00 0.00 0.00 0.00 0.00 0.00 0.00 0.00 0.00 0.00 0.00 0.00 0.00 0.00 0.00 0.00 0.00 0.00 0.00 0.00 0.00
0.00 0.00 0.00 0.00 0.00 0.00 0.00 0.00 0.00 0.00 0.00 0.00 0.00 0.00 0.00 0.00 0.00 0.00 0.00 0.00 0.00 0.00 0.00 0.00 0.00 0.00 0.00 0.00 0.00 0.00 0.00 0.00 0.00 0.00 0.00 0.00 0.00 0.00 0.00 0.00 0.00 0.00 0.00 0.00 0.00 0.00 0.00 0.00 0.00
0.00 0.00 0.00 0.00 0.00 0.00 0.00 0.00 0.00 0.00 0.00 0.00 0.00 0.00 0.00 0.00 0.00 0.00 0.00 0.00 0.00 0.00 0.00 0.00 0.00 0.00 0.00 0.00 0.00 0.00 0.00 0.00 0.00 0.00 0.00 0.00 0.00 0.00 0.00 0.00 0.00 0.00 0.00 0.00 0.00 0.00 0.00 0.00 0.00
0.00 0.00 0.00 0.00 0.00 0.00 0.00 0.00 0.00 0.00 0.00 0.00 0.00 0.00 0.00 0.00 0.00 0.00 0.00 0.00 0.00 0.00 0.00 0.00 0.00 0.00 0.00 0.00 0.00 0.00 0.00 0.00 0.00 0.00 0.00 0.00 0.00 0.00 0.00 0.00 0.00 0.00 0.00 0.00 0.00 0.00 0.00 0.00 0.00
0.00 0.00 0.00 0.00 0.00 0.00 0.00 0.00 0.00 0.00 0.00 0.00 0.00 0.00 0.00 0.00 0.00 0.00 0.00 0.00 0.00 0.00 0.00 0.00 0.00 0.00 0.00 0.00 0.00 0.00 0.00 0.00 0.00 0.00 0.00 0.00 0.00 0.00 0.00 0.00 0.00 0.00 0.00 0.00 0.00 0.00 0.00 0.00 0.00
0.00 0.00 0.00 0.00 0.00 0.00 0.00 0.00 0.00 0.00 0.00 0.00 0.00 0.00 0.00 0.00 0.00 0.00 0.00 0.00 0.00 0.00 0.00 0.00 0.00 0.00 0.00 0.00 0.00 0.00 0.00 0.00 0.00 0.00 0.00 0.00 0.00 0.00 0.00 0.00 0.00 0.00 0.00 0.00 0.00 0.00 0.00 0.00 0.00
0.00 0.00 0.00 0.00 0.00 0.00 0.00 0.00 0.00 0.00 0.00 0.00 0.00 0.00 0.00 0.00 0.00 0.00 0.00 0.00 0.00 0.00 0.00 0.00 0.00 0.00 0.00 0.00 0.00 0.00 0.00 0.00 0.00 0.00 0.00 0.00 0.00 0.00 0.00 0.00 0.00 0.00 0.00 0.00 0.00 0.00 0.00 0.00 0.00
MSLP
1015.09 1015.93 1016.97 1018.04 1018.99 1019.68 1020.01 1019.98 1019.62 1019.06 1018.44 1017.88 1017.50 1017.32 1017.33 1017.47 1017.66 1017.81 1017.89 1017.89 1017.84 1017.81 1017.86 1018.03 1018.33 1018.73 1019.17 1019.60 1019.97 1020.23 1020.40 1020.51 1020.60 1020.72 1020.89 1021.13 1021.41 1021.70 1021.95 1022.13 1022.24 1022.26 1022.24 1022.20 1022.16 1022.14 1022.15 1022.16 1022.16
1015.51 1016.51 1017.64 1018.70 1019.55 1020.06 1020.16 1019.86 1019.26 1018.50 1017.72 1017.08 1016.66 1016.49 1016.52 1016.70 1016.92 1017.10 1017.21 1017.25 1017.26 1017.30 1017.44 1017.70 1018.10 1018.59 1019.12 1019.62 1020.04 1020.35 1020.56 1020.70 1020.82 1020.97 1021.17 1021.42 1021.71 1022.00 1022.25 1022.42 1022.53 1022.56 1022.55 1022.52 1022.50 1022.50 1022.51 1022.53 1022.54
1016.01 1017.12 1018.25 1019.24 1019.93 1020.22 1020.08 1019.56 1018.76 1017.86 1017.01 1016.35 1015.96 1015.83 1015.91 1016.13 1016.38 1016.58 1016.71 1016.77 1016.81 1016.91 1017.11 1017.44 1017.92 1018.49 1019.09 1019.65 1020.11 1020.47 1020.71 1020.88 1021.03 1021.20 1021.41 1021.66 1021.94 1022.21 1022.44 1022.60 1022.69 1022.72 1022.72 1022.70 1022.70 1022.72 1022.77 1022.81 1022.84
1016.59 1017.71 1018.79 1019.64 1020.14 1020.20 1019.85 1019.14 1018.22 1017.26 1016.41 1015.81 1015.48 1015.44 1015.59 1015.85 1016.12 1016.32 1016.44 1016.50 1016.56 1016.68 1016.92 1017.31 1017.84 1018.46 1019.10 1019.68 1020.18 1020.55 1020.82 1021.01 1021.18 1021.36 1021.58 1021.83 1022.09 1022.34 1022.55 1022.69 1022.76 1022.79 1022.79 1022.80 1022.83 1022.88 1022.95 1023.04 1023.10
1017.20 1018.28 1019.23 1019.90 1020.19 1020.05 1019.52 1018.69 1017.73 1016.79 1016.02 1015.52 1015.31 1015.36 1015.57 1015.87 1016.14 1016.32 1016.42 1016.46 1016.51 1016.64 1016.90 1017.32 1017.87 1018.49 1019.13 1019.72 1020.20 1020.57 1020.84 1021.04 1021.22 1021.42 1021.64 1021.90 1022.16 1022.41 1022.60 1022.73 1022.80 1022.83 1022.85 1022.88 1022.93 1023.02 1023.13 1023.24 1023.35
1017.78 1018.76 1019.55 1020.03 1020.12 1019.81 1019.16 1018.29 1017.35 1016.50 1015.86 1015.50 1015.42 1015.56 1015.83 1016.14 1016.38 1016.53 1016.59 1016.60 1016.63 1016.76 1017.02 1017.44 1017.98 1018.58 1019.19 1019.73 1020.18 1020.52 1020.76 1020.96 1021.16 1021.37 1021.62 1021.90 1022.18 1022.43 1022.63 1022.76 1022.84 1022.89 1022.93 1022.98 1023.07 1023.18 1023.32 1023.47 1023.60
1018.26 1019.11 1019.72 1020.02 1019.94 1019.51 1018.80 1017.95 1017.10 1016.39 1015.91 1015.70 1015.74 1015.96 1016.25 1016.54 1016.74 1016.84 1016.85 1016.83 1016.84 1016.96 1017.22 1017.62 1018.14 1018.70 1019.24 1019.72 1020.10 1020.39 1020.61 1020.80 1021.01 1021.26 1021.54 1021.86 1022.17 1022.45 1022.67 1022.82 1022.92 1022.99 1023.05 1023.13 1023.24 1023.38 1023.54 1023.70 1023.84
1018.58 1019.29 1019.73 1019.86 1019.65 1019.15 1018.45 1017.68 1016.95 1016.40 1016.08 1016.01 1016.14 1016.40 1016.69 1016.93 1017.07 1017.11 1017.07 1017.03 1017.04 1017.16 1017.42 1017.82 1018.30 1018.80 1019.28 1019.68 1019.99 1020.23 1020.42 1020.61 1020.83 1021.12 1021.45 1021.81 1022.16 1022.48 1022.73 1022.92 1023.04 1023.13 1023.21 1023.31 1023.43 1023.58 1023.74 1023.90 1024.03
1018.72 1019.29 1019.58 1019.57 1019.28 1018.75 1018.10 1017.43 1016.85 1016.46 1016.29 1016.32 1016.51 1016.76 1017.01 1017.19 1017.26 1017.24 1017.16 1017.11 1017.14 1017.28 1017.56 1017.95 1018.41 1018.87 1019.28 1019.61 1019.86 1020.05 1020.22 1020.42 1020.67 1020.99 1021.37 1021.78 1022.18 1022.53 1022.81 1023.01 1023.15 1023.25 1023.35 1023.45 1023.58 1023.73 1023.88 1024.02 1024.14
1018.69 1019.12 1019.28 1019.17 1018.83 1018.32 1017.73 1017.18 1016.75 1016.50 1016.44 1016.54 1016.74 1016.97 1017.15 1017.24 1017.24 1017.16 1017.07 1017.03 1017.09 1017.27 1017.59 1017.99 1018.44 1018.87 1019.24 1019.52 1019.73 1019.89 1020.06 1020.26 1020.55 1020.91 1021.33 1021.77 1022.20 1022.57 1022.86 1023.06 1023.21 1023.31 1023.41 1023.51 1023.64 1023.78 1023.92 1024.04 1024.14
1018.55 1018.85 1018.90 1018.71 1018.34 1017.86 1017.36 1016.92 1016.62 1016.48 1016.50 1016.63 1016.81 1016.98 1017.08 1017.09 1017.02 1016.90 1016.81 1016.79 1016.89 1017.13 1017.49 1017.92 1018.38 1018.80 1019.14 1019.40 1019.60 1019.76 1019.93 1020.16 1020.48 1020.87 1021.31 1021.77 1022.20 1022.56 1022.84 1023.03 1023.16 1023.26 1023.35 1023.45 1023.56 1023.70 1023.82 1023.93 1024.00
1018.37 1018.56 1018.51 1018.26 1017.87 1017.43 1017.00 1016.66 1016.46 1016.40 1016.46 1016.60 1016.74 1016.84 1016.87 1016.80 1016.68 1016.54 1016.45 1016.46 1016.60 1016.89 1017.29 1017.75 1018.22 1018.65 1018.99 1019.26 1019.46 1019.64 1019.85 1020.11 1020.45 1020.85 1021.30 1021.74 1022.15 1022.48 1022.72 1022.89 1022.99 1023.07 1023.15 1023.25 1023.36 1023.49 1023.61 1023.70 1023.76
1018.26 1018.33 1018.19 1017.89 1017.49 1017.07 1016.71 1016.44 1016.31 1016.30 1016.38 1016.50 1016.61 1016.65 1016.62 1016.50 1016.33 1016.18 1016.10 1016.13 1016.30 1016.62 1017.04 1017.52 1018.00 1018.43 1018.80 1019.08 1019.32 1019.54 1019.78 1020.08 1020.43 1020.84 1021.26 1021.67 1022.02 1022.30 1022.50 1022.62 1022.70 1022.77 1022.84 1022.94 1023.06 1023.19 1023.30 1023.39 1023.43
1018.28 1018.25 1018.03 1017.67 1017.26 1016.86 1016.53 1016.31 1016.21 1016.23 1016.31 1016.42 1016.50 1016.51 1016.43 1016.29 1016.11 1015.96 1015.88 1015.91 1016.08 1016.39 1016.80 1017.27 1017.75 1018.19 1018.57 1018.90 1019.18 1019.44 1019.73 1020.05 1020.41 1020.79 1021.18 1021.53 1021.82 1022.04 1022.18 1022.27 1022.33 1022.39 1022.47 1022.58 1022.71 1022.84 1022.96 1023.04 1023.07
1018.46 1018.33 1018.04 1017.64 1017.22 1016.82 1016.50 1016.29 1016.20 1016.23 1016.31 1016.40 1016.47 1016.47 1016.40 1016.26 1016.09 1015.94 1015.85 1015.87 1016.02 1016.28 1016.65 1017.08 1017.52 1017.96 1018.36 1018.72 1019.04 1019.36 1019.68 1020.02 1020.38 1020.73 1021.06 1021.34 1021.56 1021.72 1021.81 1021.88 1021.93 1022.00 1022.10 1022.23 1022.37 1022.52 1022.63 1022.70 1022.72
1018.75 1018.56 1018.22 1017.79 1017.35 1016.94 1016.61 1016.40 1016.30 1016.30 1016.37 1016.46 1016.54 1016.56 1016.52 1016.42 1016.28 1016.15 1016.06 1016.05 1016.14 1016.33 1016.62 1016.98 1017.38 1017.79 1018.19 1018.58 1018.95 1019.31 1019.67 1020.01 1020.35 1020.66 1020.92 1021.13 1021.29 1021.39 1021.45 1021.50 1021.56 1021.65 1021.78 1021.93 1022.09 1022.24 1022.35 1022.40 1022.40
1019.08 1018.85 1018.50 1018.07 1017.62 1017.20 1016.85 1016.60 1016.46 1016.43 1016.48 1016.56 1016.66 1016.73 1016.76 1016.72 1016.64 1016.54 1016.45 1016.40 1016.43 1016.53 1016.73 1017.00 1017.34 1017.72 1018.12 1018.53 1018.94 1019.33 1019.70 1020.05 1020.35 1020.61 1020.81 1020.95 1021.04 1021.10 1021.14 1021.19 1021.27 1021.38 1021.54 1021.71 1021.88 1022.03 1022.13 1022.16 1022.12
1019.35 1019.14 1018.82 1018.42 1017.98 1017.55 1017.16 1016.86 1016.65 1016.56 1016.56 1016.64 1016.77 1016.90 1017.00 1017.06 1017.06 1017.02 1016.95 1016.88 1016.84 1016.87 1016.97 1017.16 1017.43 1017.77 1018.17 1018.59 1019.02 1019.44 1019.82 1020.15 1020.41 1020.61 1020.74 1020.82 1020.85 1020.88 1020.90 1020.96 1021.06 1021.20 1021.37 1021.56 1021.74 1021.87 1021.94 1021.94 1021.86
1019.49 1019.35 1019.10 1018.76 1018.35 1017.92 1017.48 1017.10 1016.80 1016.62 1016.56 1016.62 1016.76 1016.95 1017.15 1017.32 1017.43 1017.47 1017.45 1017.39 1017.32 1017.28 1017.31 1017.43 1017.64 1017.95 1018.33 1018.76 1019.21 1019.63 1020.01 1020.31 1020.53 1020.67 1020.74 1020.75 1020.74 1020.73 1020.75 1020.81 1020.92 1021.08 1021.26 1021.45 1021.61 1021.72 1021.77 1021.73 1021.62
1019.44 1019.42 1019.28 1019.04 1018.69 1018.26 1017.77 1017.29 1016.87 1016.57 1016.42 1016.42 1016.57 1016.82 1017.12 1017.41 1017.65 1017.79 1017.85 1017.83 1017.77 1017.71 1017.70 1017.77 1017.95 1018.23 1018.61 1019.04 1019.48 1019.90 1020.26 1020.53 1020.70 1020.78 1020.79 1020.75 1020.70 1020.66 1020.66 1020.72 1020.84 1020.99 1021.17 1021.34 1021.47 1021.56 1021.57 1021.51 1021.38
1019.23 1019.36 1019.38 1019.26 1018.97 1018.54 1018.00 1017.40 1016.84 1016.39 1016.12 1016.04 1016.17 1016.46 1016.84 1017.26 1017.64 1017.92 1018.09 1018.15 1018.13 1018.09 1018.08 1018.14 1018.30 1018.57 1018.94 1019.36 1019.80 1020.21 1020.54 1020.77 1020.89 1020.92 1020.87 1020.78 1020.69 1020.63 1020.62 1020.66 1020.76 1020.90 1021.05 1021.19 1021.29 1021.34 1021.32 1021.25 1021.12
1018.91 1019.21 1019.40 1019.41 1019.20 1018.77 1018.15 1017.44 1016.72 1016.10 1015.68 1015.51 1015.59 1015.89 1016.35 1016.89 1017.40 1017.83 1018.14 1018.31 1018.38 1018.39 1018.41 1018.48 1018.64 1018.91 1019.27 1019.69 1020.11 1020.49 1020.79 1020.98 1021.06 1021.04 1020.95 1020.83 1020.71 1020.62 1020.59 1020.61 1020.68 1020.78 1020.89 1020.99 1021.05 1021.07 1021.03 1020.95 1020.84
1018.56 1019.04 1019.39 1019.52 1019.38 1018.94 1018.26 1017.41 1016.53 1015.75 1015.17 1014.88 1014.90 1015.20 1015.72 1016.35 1017.00 1017.57 1018.02 1018.32 1018.49 1018.58 1018.65 1018.75 1018.93 1019.20 1019.55 1019.95 1020.35 1020.71 1020.97 1021.13 1021.18 1021.12 1021.01 1020.87 1020.73 1020.62 1020.57 1020.56 1020.60 1020.65 1020.71 1020.75 1020.77 1020.76 1020.71 1020.64 1020.55
1018.25 1018.88 1019.37 1019.60 1019.51 1019.07 1018.32 1017.36 1016.32 1015.38 1014.66 1014.25 1014.20 1014.48 1015.03 1015.74 1016.49 1017.19 1017.77 1018.20 1018.48 1018.66 1018.79 1018.93 1019.14 1019.41 1019.75 1020.13 1020.51 1020.83 1021.07 1021.21 1021.23 1021.17 1021.04 1020.89 1020.75 1020.64 1020.56 1020.52 1020.51 1020.52 1020.52 1020.51 1020.48 1020.43 1020.38 1020.32 1020.25
1018.01 1018.75 1019.34 1019.65 1019.59 1019.14 1018.33 1017.27 1016.12 1015.04 1014.19 1013.68 1013.56 1013.82 1014.38 1015.13 1015.97 1016.77 1017.46 1017.99 1018.38 1018.64 1018.84 1019.03 1019.25 1019.53 1019.86 1020.22 1020.58 1020.88 1021.10 1021.22 1021.24 1021.18 1021.06 1020.92 1020.78 1020.67 1020.57 1020.51 1020.45 1020.40 1020.34 1020.28 1020.20 1020.12 1020.06 1020.00 1019.95
1017.82 1018.63 1019.28 1019.63 1019.58 1019.11 1018.26 1017.14 1015.90 1014.74 1013.81 1013.23 1013.05 1013.27 1013.83 1014.61 1015.49 1016.36 1017.12 1017.74 1018.21 1018.55 1018.80 1019.04 1019.28 1019.57 1019.90 1020.25 1020.58 1020.87 1021.08 1021.20 1021.23 1021.18 1021.09 1020.96 1020.84 1020.73 1020.62 1020.53 1020.43 1020.32 1020.21 1020.08 1019.96 1019.84 1019.75 1019.69 1019.64
1017.63 1018.46 1019.12 1019.48 1019.43 1018.95 1018.08 1016.93 1015.66 1014.46 1013.49 1012.87 1012.66 1012.86 1013.40 1014.18 1015.08 1015.98 1016.80 1017.47 1018.00 1018.40 1018.71 1018.99 1019.27 1019.57 1019.91 1020.25 1020.57 1020.85 1021.06 1021.19 1021.23 1021.21 1021.14 1021.04 1020.93 1020.82 1020.70 1020.58 1020.44 1020.28 1020.10 1019.92 1019.74 1019.59 1019.46 1019.37 1019.31
1017.37 1018.18 1018.81 1019.15 1019.08 1018.59 1017.73 1016.59 1015.35 1014.17 1013.21 1012.60 1012.38 1012.56 1013.09 1013.85 1014.74 1015.65 1016.48 1017.19 1017.76 1018.22 1018.58 1018.91 1019.23 1019.56 1019.91 1020.26 1020.59 1020.86 1021.08 1021.21 1021.27 1021.27 1021.21 1021.13 1021.03 1020.91 1020.78 1020.63 1020.44 1020.24 1020.00 1019.77 1019.54 1019.33 1019.16 1019.03 1018.94
1016.98 1017.74 1018.32 1018.60 1018.50 1018.01 1017.17 1016.09 1014.92 1013.81 1012.92 1012.35 1012.16 1012.34 1012.85 1013.58 1014.45 1015.34 1016.17 1016.90 1017.51 1018.01 1018.44 1018.82 1019.19 1019.56 1019.94 1020.31 1020.64 1020.92 1021.14 1021.28 1021.34 1021.34 1021.29 1021.21 1021.11 1020.97 1020.82 1020.63 1020.40 1020.15 1019.87 1019.58 1019.30 1019.04 1018.83 1018.66 1018.52
1016.48 1017.14 1017.63 1017.84 1017.70 1017.22 1016.42 1015.43 1014.35 1013.36 1012.57 1012.08 1011.94 1012.14 1012.64 1013.35 1014.18 1015.05 1015.87 1016.61 1017.25 1017.80 1018.29 1018.74 1019.17 1019.59 1020.00 1020.38 1020.73 1021.01 1021.22 1021.35 1021.40 1021.39 1021.33 1021.24 1021.11 1020.95 1020.76 1020.53 1020.26 1019.96 1019.64 1019.31 1018.99 1018.70 1018.45 1018.23 1018.05
Thickness
5751 5750 5748 5738 5715 5694 5696 5709 5721 5725 5731 5740 5743 5739 5730 5725 5720 5717 5736 5737 5734 5729 5724 5720 5716 5712 5710 5707 5705 5703 5701 5699 5698 5696 5695 5693 5692 5691 5690 5689 5688 5687 5686 5686 5685 5684 5684 5683 5683
5751 5750 5741 5725 5700 5686 5695 5714 5721 5731 5739 5745 5746 5741 5732 5730 5736 5735 5735 5736 5734 5729 5724 5720 5715 5711 5708 5705 5702 5700 5698 5696 5694 5692 5691 5689 5688 5686 5685 5684 5683 5681 5680 5680 5679 5678 5677 5677 5676
5751 5748 5729 5712 5698 5691 5705 5721 5726 5737 5744 5746 5742 5741 5735 5733 5736 5737 5741 5738 5733 5727 5723 5718 5714 5710 5706 5703 5700 5698 5695 5693 5691 5689 5687 5685 5683 5682 5680 5678 5677 5676 5675 5674 5673 5672 5671 5671 5670
5746 5735 5722 5705 5702 5709 5719 5726 5732 5736 5741 5746 5741 5733 5734 5738 5740 5743 5742 5737 5731 5726 5722 5717 5713 5708 5705 5701 5698 5695 5693 5690 5688 5685 5683 5681 5679 5677 5675 5673 5672 5671 5669 5668 5667 5666 5665 5665 5664
5740 5723 5709 5698 5705 5719 5728 5734 5739 5735 5736 5740 5739 5730 5729 5736 5742 5743 5739 5734 5730 5725 5720 5716 5712 5707 5703 5700 5696 5693 5690 5687 5685 5682 5680 5677 5675 5673 5670 5668 5667 5665 5664 5663 5662 5660 5659 5659 5658
5725 5713 5696 5693 5706 5721 5730 5737 5738 5734 5733 5736 5734 5726 5726 5735 5737 5737 5735 5731 5727 5723 5718 5714 5710 5706 5702 5698 5694 5691 5687 5684 5682 5679 5676 5674 5671 5668 5666 5664 5662 5660 5659 5657 5656 5655 5654 5653 5652
5717 5705 5698 5702 5705 5716 5729 5737 5734 5730 5731 5734 5735 5721 5723 5730 5734 5734 5731 5727 5722 5718 5715 5711 5708 5703 5699 5695 5692 5688 5685 5682 5679 5676 5673 5670 5667 5664 5662 5659 5657 5655 5654 5652 5651 5650 5649 5648 5647
5722 5705 5701 5699 5705 5714 5726 5733 5734 5733 5732 5740 5737 5720 5719 5728 5732 5730 5727 5722 5718 5714 5711 5708 5705 5701 5697 5693 5689 5685 5682 5678 5675 5672 5669 5666 5663 5660 5657 5655 5653 5651 5649 5647 5646 5645 5644 5643 5642
5723 5697 5692 5702 5708 5713 5724 5725 5728 5736 5733 5733 5731 5728 5731 5731 5727 5723 5719 5715 5712 5709 5707 5704 5701 5697 5693 5689 5685 5682 5678 5675 5672 5669 5665 5662 5659 5656 5653 5651 5648 5646 5644 5642 5641 5640 5639 5638 5637
5710 5691 5701 5714 5718 5717 5720 5721 5724 5726 5722 5722 5723 5724 5726 5725 5721 5717 5714 5711 5709 5706 5704 5702 5698 5694 5690 5686 5682 5678 5674 5671 5668 5665 5661 5658 5655 5652 5649 5646 5644 5642 5640 5638 5637 5635 5634 5633 5632
5711 5701 5708 5716 5721 5721 5719 5720 5723 5720 5714 5718 5719 5718 5719 5718 5715 5713 5712 5711 5710 5708 5703 5700 5696 5692 5687 5683 5679 5675 5671 5667 5664 5661 5657 5654 5650 5647 5644 5642 5640 5637 5635 5633 5632 5630 5629 5627 5626
5708 5709 5713 5716 5720 5719 5717 5719 5717 5717 5717 5724 5723 5720 5716 5713 5711 5711 5710 5709 5708 5705 5702 5698 5694 5689 5685 5680 5676 5671 5667 5663 5660 5656 5653 5650 5646 5643 5640 5638 5635 5633 5631 5629 5627 5625 5624 5622 5621
5704 5706 5712 5715 5714 5715 5716 5713 5713 5715 5721 5721 5719 5715 5712 5711 5711 5711 5711 5709 5705 5703 5700 5697 5692 5687 5682 5677 5673 5668 5664 5660 5656 5653 5649 5646 5643 5639 5636 5633 5631 5628 5626 5624 5622 5620 5618 5617 5616
5702 5704 5704 5707 5709 5711 5709 5708 5707 5713 5718 5715 5712 5709 5708 5708 5708 5708 5707 5705 5703 5702 5699 5695 5690 5686 5680 5675 5670 5665 5661 5657 5653 5649 5646 5643 5639 5636 5632 5629 5626 5624 5621 5619 5617 5615 5613 5612 5610
5699 5693 5693 5700 5703 5706 5705 5698 5702 5713 5712 5708 5705 5704 5704 5704 5705 5705 5705 5704 5702 5700 5697 5693 5688 5683 5677 5672 5667 5662 5658 5653 5649 5646 5642 5639 5635 5632 5628 5625 5622 5620 5617 5615 5612 5610 5608 5606 5605
5684 5678 5673 5690 5699 5700 5694 5686 5703 5709 5705 5699 5698 5697 5698 5699 5700 5701 5702 5702 5700 5697 5693 5689 5685 5679 5674 5669 5664 5659 5654 5649 5645 5641 5638 5634 5631 5628 5624 5620 5618 5615 5612 5610 5607 5605 5602 5601 5599
5663 5658 5664 5678 5693 5691 5686 5683 5699 5703 5699 5694 5691 5691 5691 5692 5694 5695 5696 5696 5695 5692 5688 5684 5680 5674 5669 5664 5659 5654 5649 5645 5641 5637 5633 5630 5626 5623 5619 5616 5613 5610 5607 5604 5602 5599 5597 5595 5594
5650 5654 5660 5666 5682 5681 5677 5679 5691 5696 5693 5689 5686 5685 5685 5686 5687 5688 5689 5688 5687 5685 5682 5678 5674 5669 5664 5658 5653 5648 5643 5639 5635 5631 5627 5624 5620 5617 5614 5610 5607 5605 5601 5598 5595 5593 5591 5589 5587
5654 5653 5653 5663 5676 5675 5671 5675 5685 5690 5685 5681 5679 5678 5679 5679 5680 5680 5680 5679 5678 5676 5674 5670 5666 5662 5657 5651 5645 5640 5635 5631 5627 5624 5621 5618 5614 5611 5608 5605 5601 5598 5595 5592 5589 5587 5584 5581 5579
5648 5645 5649 5658 5670 5669 5667 5672 5682 5686 5684 5684 5681 5676 5674 5673 5673 5672 5671 5670 5669 5667 5665 5662 5659 5655 5651 5646 5640 5635 5629 5624 5621 5617 5614 5611 5608 5605 5602 5598 5595 5592 5588 5585 5582 5579 5575 5573 5570
5644 5643 5646 5649 5658 5662 5660 5662 5674 5684 5685 5683 5680 5677 5672 5671 5667 5665 5663 5661 5659 5658 5656 5655 5651 5647 5643 5639 5633 5627 5621 5616 5612 5609 5606 5603 5601 5597 5594 5591 5588 5584 5581 5577 5574 5571 5567 5564 5561
5636 5648 5647 5646 5640 5634 5646 5636 5663 5673 5675 5674 5671 5668 5665 5665 5662 5659 5656 5654 5651 5650 5648 5646 5643 5639 5635 5631 5626 5620 5613 5608 5604 5600 5597 5595 5592 5589 5586 5583 5579 5576 5572 5569 5565 5563 5559 5555 5551
5640 5648 5645 5642 5635 5628 5632 5628 5653 5664 5665 5667 5666 5663 5661 5660 5657 5654 5650 5648 5645 5642 5639 5637 5634 5630 5626 5622 5618 5612 5605 5600 5596 5592 5589 5586 5583 5580 5577 5574 5570 5567 5563 5560 5557 5553 5550 5546 5542
5641 5637 5630 5618 5615 5611 5627 5619 5639 5656 5667 5669 5665 5661 5658 5655 5652 5648 5644 5640 5636 5633 5630 5628 5625 5620 5617 5613 5608 5603 5598 5592 5588 5583 5579 5576 5573 5571 5568 5565 5561 5557 5554 5550 5548 5544 5540 5537 5533
5631 5615 5601 5601 5595 5605 5626 5621 5642 5670 5673 5674 5670 5662 5655 5651 5647 5643 5637 5634 5629 5625 5622 5619 5616 5612 5607 5603 5599 5594 5589 5584 5580 5575 5571 5567 5563 5560 5558 5555 5551 5548 5544 5541 5538 5535 5531 5528 5524
5619 5614 5597 5593 5593 5606 5623 5620 5650 5671 5673 5675 5672 5662 5651 5646 5643 5640 5635 5630 5625 5620 5616 5612 5608 5603 5599 5594 5590 5585 5581 5576 5571 5567 5563 5558 5554 5551 5548 5545 5541 5538 5534 5531 5528 5525 5521 5518 5514
5612 5608 5613 5600 5600 5599 5612 5630 5651 5667 5666 5664 5660 5653 5647 5643 5639 5636 5630 5625 5620 5615 5610 5605 5600 5595 5590 5586 5581 5576 5571 5567 5562 5558 5554 5549 5545 5541 5538 5534 5531 5528 5524 5521 5518 5514 5510 5507 5503
5620 5613 5599 5592 5586 5586 5603 5620 5634 5653 5655 5652 5650 5648 5644 5639 5634 5630 5626 5621 5615 5610 5604 5598 5593 5588 5582 5577 5572 5567 5562 5557 5553 5548 5543 5539 5535 5531 5528 5524 5521 5517 5514 5511 5507 5503 5500 5496 5493
5608 5606 5602 5593 5589 5585 5590 5615 5645 5649 5651 5649 5647 5646 5643 5638 5633 5628 5622 5616 5609 5603 5596 5591 5585 5579 5573 5568 5563 5557 5552 5548 5542 5537 5533 5529 5525 5521 5517 5514 5510 5507 5503 5500 5496 5493 5489 5485 5482
5608 5607 5599 5589 5590 5588 5587 5611 5648 5648 5648 5645 5642 5640 5637 5634 5629 5623 5616 5608 5602 5595 5589 5583 5577 5571 5565 5559 5553 5547 5542 5537 5532 5527 5523 5519 5515 5511 5507 5503 5500 5496 5493 5489 5485 5482 5479 5474 5470